E20YUC-1 Weather Reports


time (UTC)temp
C
wind
direction
speed
KPH
gust
KPH
rain 1hr
cm
rain 24hr
cm
rain mn
cm
humidity
%
barometer
mb
20260504150602 28 22 0.0 0.0 0.00 0.00 0.00 74 998.7
20260504141103 28 90 0.0 0.0 0.00 0.00 0.00 72 998.3
20260504140602 28 22 0.0 0.0 0.00 0.00 0.00 72 998.3
20260504140104 28 90 0.0 0.0 0.00 0.00 0.00 72 998.1
20260504130703 29 90 0.0 0.0 0.00 0.00 0.00 71 996.7
20260504130218 29 90 0.0 0.0 0.00 0.00 0.00 71 996.6
20260504120217 29 22 0.0 0.0 0.00 0.00 0.00 73 995.7
20260504110719 29 90 0.0 9.7 0.00 0.00 0.00 74 995.2
20260504081715 37 0 0.0 16.1 0.00 0.00 0.00 49 993.6
20260504081217 38 22 6.4 12.9 0.00 0.00 0.00 49 993.6
20260504080215 38 22 4.8 9.7 0.00 0.00 0.00 49 993.7
20260504070214 40 0 0.0 8.0 0.00 0.00 0.00 48 994.4
20260504050713 37 22 0.0 8.0 0.00 0.00 0.00 53 997.4
20260504045713 37 22 0.0 6.4 0.00 0.00 0.00 53 997.3
20260504045215 37 22 1.6 12.9 0.00 0.00 0.00 54 997.4
20260504044713 37 22 0.0 0.0 0.00 0.00 0.00 54 997.3
20260504044213 36 22 0.0 0.0 0.00 0.00 0.00 55 997.5
20260504043713 36 22 0.0 3.2 0.00 0.00 0.00 55 997.6
20260504043213 36 22 0.0 4.8 0.00 0.00 0.00 55 997.5
20260504042715 36 22 0.0 1.6 0.00 0.00 0.00 56 997.7
20260504041713 36 22 0.0 6.4 0.00 0.00 0.00 56 997.7
20260504041213 36 90 12.9 12.9 0.00 0.00 0.00 56 997.8
20260504040713 36 22 0.0 6.4 0.00 0.00 0.00 57 997.7
20260504035712 36 22 0.0 8.0 0.00 0.00 0.00 57 998.0
20260504035212 36 22 0.0 0.0 0.00 0.00 0.00 58 998.0
20260504034212 36 22 0.0 3.2 0.00 0.00 0.00 58 998.2
20260504033714 36 22 0.0 0.0 0.00 0.00 0.00 59 998.2
20260504033212 35 22 0.0 3.2 0.00 0.00 0.00 59 998.0
20260504032212 35 22 0.0 3.2 0.00 0.00 0.00 62 998.0
20260504031712 35 90 0.0 0.0 0.00 0.00 0.00 62 998.1
20260504031214 35 22 0.0 3.2 0.00 0.00 0.00 62 998.2
20260504030212 35 22 0.0 4.8 0.00 0.00 0.00 63 998.2
20260504025212 34 22 0.0 0.0 0.00 0.00 0.00 64 998.3
20260504024714 34 22 0.0 4.8 0.00 0.00 0.00 65 998.4
20260504024212 -46 22 0.0 0.0 0.00 0.00 0.00 66 998.4
20260504023712 33 22 8.0 8.0 0.00 0.00 0.00 66 998.2
20260504022712 33 90 0.0 6.4 0.00 0.00 0.00 67 998.4
20260504022213 33 22 0.0 8.0 0.00 0.00 0.00 67 998.4
20260504021711 33 0 0.0 4.8 0.00 0.00 0.00 67 998.4
20260504021212 33 22 4.8 6.4 0.00 0.00 0.00 68 998.3
20260504020713 33 22 0.0 4.8 0.00 0.00 0.00 68 998.4
20260504020211 1 90 0.0 0.0 0.00 0.00 0.00 68 998.4
20260504015713 33 22 0.0 4.8 0.00 0.00 0.00 69 998.3
20260504014711 33 22 0.0 4.8 0.00 0.00 0.00 69 998.4
20260504013711 33 0 0.0 46.7 0.00 0.00 0.00 70 998.4
20260504013213 32 22 0.0 3.2 0.00 0.00 0.00 69 998.3
20260504012211 32 22 0.0 0.0 0.00 0.00 0.00 70 998.2
20260504011211 32 22 0.0 185.1 0.00 0.00 0.00 70 998.4
20260504010718 32 22 0.0 0.0 0.00 0.00 0.00 70 998.4
20260504010211 32 22 0.0 3.2 0.00 0.00 0.00 70 998.4
20260504005211 31 22 0.0 0.0 0.00 0.00 0.00 70 998.1
20260504004711 31 22 0.0 0.0 0.00 0.00 0.00 70 998.1
20260504004212 31 22 0.0 0.0 0.00 0.00 0.00 70 998.1
20260504003711 31 90 0.0 9.7 0.00 0.00 0.00 70 998.1
20260504003210 31 22 0.0 0.0 0.00 0.00 0.00 70 997.9
20260504002210 31 22 0.0 0.0 0.00 0.00 0.00 70 997.9
20260504001712 31 0 0.0 4.8 0.00 0.00 0.00 70 997.8
20260504001211 31 90 0.0 8.0 0.00 0.00 0.00 71 997.8
20260504000211 31 22 0.0 4.8 0.00 0.00 0.00 72 997.7
20260503235710 31 22 8.0 8.0 0.00 0.00 0.00 72 997.8
20260503235212 30 22 0.0 0.0 0.00 0.00 0.00 73 997.6
20260503234210 30 22 0.0 0.0 0.00 0.00 0.00 74 997.5
20260503233210 29 22 0.0 0.0 0.00 0.00 0.00 76 997.5
20260503232712 28 22 0.0 0.0 0.00 0.00 0.00 76 997.4
20260503231710 28 0 0.0 0.0 0.00 0.00 0.00 76 997.3
20260503230710 28 22 0.0 8.0 0.00 0.00 0.00 76 997.1
20260503230211 28 22 9.7 11.3 0.00 0.00 0.00 76 997.0
20260503225710 28 22 0.0 4.8 0.00 0.00 0.00 76 997.1
20260503224709 28 22 0.0 1.6 0.00 0.00 0.00 75 997.0
20260503224209 28 90 6.4 6.4 0.00 0.00 0.00 75 997.0
20260503223711 28 22 0.0 1.6 0.00 0.00 0.00 75 996.9
20260503223209 28 22 6.4 6.4 0.00 0.00 0.00 75 996.8
20260503222709 28 22 0.0 0.0 0.00 0.00 0.00 75 996.7
20260503221709 28 22 0.0 4.8 0.00 0.00 0.00 74 996.6
20260503221211 28 22 0.0 46.7 0.00 0.00 0.00 74 996.7
20260503220709 28 22 0.0 3.2 0.00 0.00 0.00 74 996.6
20260503215709 28 292 0.0 0.0 0.00 0.00 0.00 74 996.6
20260503215209 29 90 6.4 6.4 0.00 0.00 0.00 74 996.5
20260503214711 29 90 0.0 0.0 0.00 0.00 0.00 74 996.4
20260503214209 29 22 0.0 4.8 0.00 0.00 0.00 74 996.4
20260503213709 29 22 3.2 3.2 0.00 0.00 0.00 73 996.4
20260503213209 29 90 3.2 6.4 0.00 0.00 0.00 73 996.4
20260503212709 29 22 0.0 0.0 0.00 0.00 0.00 73 996.3
20260503212210 29 22 0.0 0.0 0.00 0.00 0.00 73 996.3
20260503211709 29 0 0.0 1.6 0.00 0.00 0.00 73 996.3
20260503211208 29 22 0.0 0.0 0.00 0.00 0.00 73 996.1
20260503210208 29 22 0.0 8.0 0.00 0.00 0.00 73 996.0
20260503205710 29 22 0.0 3.2 0.00 0.00 0.00 73 996.0
20260503205208 29 22 0.0 0.0 0.00 0.00 0.00 73 995.9
20260503204708 29 0 0.0 6.4 0.00 0.00 0.00 73 995.8
20260503204208 29 45 0.0 185.1 0.00 0.00 0.00 73 995.8
20260503203708 29 90 0.0 0.0 0.00 0.00 0.00 73 995.8
20260503203210 29 90 0.0 4.8 0.00 0.00 0.00 73 996.0
20260503202208 30 22 0.0 0.0 0.00 0.00 0.00 72 995.9
20260503201208 30 0 0.0 0.0 0.00 0.00 0.00 72 995.7
20260503200710 30 90 0.0 0.0 0.00 0.00 0.00 72 996.0
20260503195708 30 22 0.0 0.0 0.00 0.00 0.00 72 995.8
20260503194708 30 22 0.0 4.8 0.00 0.00 0.00 72 995.9
20260503194209 30 22 0.0 4.8 0.00 0.00 0.00 72 995.9
20260503193207 30 292 0.0 1.6 0.00 0.00 0.00 72 996.2
20260503192207 30 22 3.2 6.4 0.00 0.00 0.00 71 996.2
20260503191710 30 22 0.0 0.0 0.00 0.00 0.00 71 996.2
20260503191207 30 22 0.0 0.0 0.00 0.00 0.00 71 996.3
20260503190707 30 90 0.0 0.0 0.00 0.00 0.00 71 996.2
20260503185707 30 22 0.0 0.0 0.00 0.00 0.00 71 996.2
20260503185209 30 22 0.0 0.0 0.00 0.00 0.00 71 996.4
20260503184707 30 90 0.0 0.0 0.00 0.00 0.00 71 996.4
20260503183707 30 22 0.0 0.0 0.00 0.00 0.00 71 996.5
20260503183207 30 22 0.0 0.0 0.00 0.00 0.00 71 996.4
20260503182709 31 22 0.0 4.8 0.00 0.00 0.00 71 996.5
20260503182207 31 22 0.0 0.0 0.00 0.00 0.00 71 996.7
20260503181207 31 22 0.0 0.0 0.00 0.00 0.00 71 996.6
20260503180707 31 22 0.0 3.2 0.00 0.00 0.00 71 996.8
20260503180208 31 22 0.0 6.4 0.00 0.00 0.00 71 996.8
20260503175206 31 0 0.0 1.6 0.00 0.00 0.00 70 996.8
20260503174707 31 22 0.0 0.0 0.00 0.00 0.00 70 996.7
20260503174206 31 22 0.0 0.0 0.00 0.00 0.00 70 996.9
20260503173708 31 90 0.0 0.0 0.00 0.00 0.00 70 997.1
20260503173206 31 90 0.0 0.0 0.00 0.00 0.00 69 997.0
20260503172706 31 22 0.0 0.0 0.00 0.00 0.00 69 997.0
20260503171706 31 22 0.0 0.0 0.00 0.00 0.00 69 996.8
20260503171208 31 22 0.0 0.0 0.00 0.00 0.00 69 996.8
20260503170706 31 22 0.0 0.0 0.00 0.00 0.00 69 996.9
20260503160205 32 22 0.0 3.2 0.00 0.00 0.00 68 997.1